Wetterdaten Frühling 2024

Datum T max T min Regen
01.03.2024 9.9 °C 3.5 °C 0.6 mm
02.03.2024 16.2 °C 2.7 °C 0 mm
03.03.2024 18.7 °C 3.6 °C 0 mm
04.03.2024 9.1 °C 7.2 °C 0 mm
05.03.2024 9.2 °C 5.6 °C 0.4 mm
06.03.2024 7.3 °C 5.2 °C 3 mm
07.03.2024 8.2 °C 0.3 °C 0 mm
08.03.2024 10.6 °C -0.9 °C 0 mm
09.03.2024 17.4 °C 2 °C 0.2 mm
10.03.2024 12.7 °C 5.7 °C 1 mm
11.03.2024 13.9 °C 4.7 °C 0.8 mm
12.03.2024 10.1 °C 4.1 °C 3 mm
13.03.2024 12.3 °C 5.8 °C 7.6 mm
14.03.2024 17.5 °C 7.7 °C 0 mm
15.03.2024 17.4 °C 6.2 °C 3.6 mm
16.03.2024 14.8 °C 7.8 °C 2 mm
17.03.2024 13.8 °C 4.4 °C 0.2 mm
18.03.2024 12.4 °C 8.6 °C 1.2 mm
19.03.2024 16.2 °C 6.9 °C 0.4 mm
20.03.2024 19.4 °C 5.5 °C 0 mm
21.03.2024 17.9 °C 7.3 °C 0 mm
22.03.2024 17.9 °C 5.7 °C 0 mm
23.03.2024 10.6 °C 3.5 °C 4.6 mm
24.03.2024 8.2 °C 3.2 °C 3 mm
25.03.2024 12.2 °C 4.2 °C 0 mm
26.03.2024 18.4 °C 3.1 °C 0 mm
27.03.2024 13.2 °C 5.6 °C 3 mm
28.03.2024 13 °C 3.3 °C 0.4 mm
29.03.2024 15.9 °C 7.8 °C 2.4 mm
30.03.2024 15.4 °C 6.7 °C 0 mm
31.03.2024 20.2 °C 6.9 °C 0 mm
01.04.2024 13.4 °C 8.9 °C 3.2 mm
02.04.2024 14.2 °C 7.3 °C 0 mm
03.04.2024 13.3 °C 8.5 °C 2.2 mm
04.04.2024 15.8 °C 10.4 °C 1 mm
05.04.2024 23.4 °C 11.9 °C 0.2 mm
06.04.2024 28.2 °C 10.9 °C 0 mm
07.04.2024 23.9 °C 12 °C 0 mm
08.04.2024 28.2 °C 12.7 °C 0 mm
09.04.2024 20.9 °C 9.6 °C 0 mm
10.04.2024 14.3 °C 7.2 °C 0 mm
11.04.2024 17.5 °C 3 °C 0 mm
12.04.2024 20.9 °C 5.2 °C 0 mm
13.04.2024 24 °C 7.8 °C 0 mm
14.04.2024 23.8 °C 9.9 °C 0 mm
15.04.2024 17.8 °C 4.4 °C 2.2 mm
16.04.2024 11.8 °C 4.6 °C 0.8 mm
17.04.2024 10.7 °C 3.9 °C 6 mm
18.04.2024 10.4 °C 3.3 °C 2.6 mm
19.04.2024 6.9 °C 4 °C 12.6 mm
20.04.2024 9.7 °C 3.4 °C 0.4 mm
21.04.2024 8.8 °C 3.2 °C 0.8 mm
22.04.2024 9.6 °C 1.4 °C 0 mm
23.04.2024 10.4 °C -1.1 °C 0 mm
24.04.2024 7.8 °C 0.3 °C 0.6 mm
25.04.2024 9.8 °C 3.1 °C 0.8 mm
26.04.2024 14.6 °C 1.6 °C 0.2 mm
27.04.2024 21.3 °C 7.8 °C 0 mm
28.04.2024 19.1 °C 9.7 °C 0 mm
29.04.2024 21.3 °C 9.8 °C 0 mm
30.04.2024 25.7 °C 8.8 °C 0 mm
01.05.2024 26.3 °C 10.1 °C 0 mm
02.05.2024 21.2 °C 11 °C 3.8 mm
03.05.2024 16.1 °C 10.6 °C 0.2 mm
04.05.2024 20.1 °C 7.6 °C 0 mm
05.05.2024 19.4 °C 13.6 °C 3.6 mm
06.05.2024 16.2 °C 13.2 °C 3 mm
07.05.2024 15.6 °C 10.7 °C 0 mm
08.05.2024 15.8 °C 8.8 °C 0 mm
09.05.2024 20.2 °C 6.8 °C 0 mm
10.05.2024 22.4 °C 6.6 °C 0 mm
11.05.2024 24.1 °C 8.2 °C 0 mm
12.05.2024 24.9 °C 9.7 °C 0 mm
13.05.2024 24.4 °C 14.7 °C 2.8 mm
14.05.2024 26.2 °C 11.9 °C 0 mm
15.05.2024 17.6 °C 13.5 °C 1.4 mm
16.05.2024 21.8 °C 12.1 °C 5 mm
17.05.2024 14.3 °C 10.9 °C 25 mm
18.05.2024 20.8 °C 10.9 °C 2.8 mm
19.05.2024 19.7 °C 11.9 °C 0.4 mm
20.05.2024 23.6 °C 9.3 °C 0 mm
21.05.2024 17.4 °C 13.9 °C 4.8 mm
22.05.2024 19.7 °C 13.1 °C 0.2 mm
23.05.2024 20.3 °C 10.4 °C 0.8 mm
24.05.2024 18.6 °C 11.8 °C 3.4 mm
 Hinweis zur Datenqualität
∅ Temperatur

11.6 °C

Abweichung vom Mittel

+1 °C

Niederschlag

128.2 mm

Abweichung vom Mittel

80 %

28.2 °C

Lufttemperatur
06.04.2024

1034.8 hPa

Luftdruck
11.04.2024

33.8 km/h

Windböen
24.03.2024

128.2 mm

Niederschlag
 

-1.1 °C

Lufttemperatur
23.04.2024

-0.6 °C

Bodentemperatur 5cm
08.03.2024

985 hPa

Luftdruck
27.03.2024
 Hinweis zur Datenqualität